Tracking 22454 objects as of 5-Mar-2021
HD Live streaming from Space Station
objects crossing your sky now

FREGAT DEB

Track FREGAT DEB now!
10-day predictions


NORAD ID: 45972
Int'l Code: 2011-037GD
Perigee: 737.4 km
Apogee: 4,303.6 km
Inclination: 51.4 °
Period: 139.1 minutes
Semi major axis: 8891 km
RCS: Unknown
Launch date: July 18, 2011
Source: Commonwealth of Independent States (former USSR) (CIS)
Launch site: TYURATAM MISSILE AND SPACE COMPLEX (TTMTR)

Note: This is SATELLITE DEBRIS
aabbcc
Your satellite tracking list
Your tracking list is empty




NASA's NSSDC Master Catalog

Two Line Element Set (TLE):
1 45972U 11037GD  20252.55936759 +.00044364 +00000-0 +97895-1 0  9999
2 45972 051.4349 193.1495 2005394 182.1607 176.9287 10.35474031004894
Source of the keplerian elements: AFSPC